COSMOS 1823 DEB, 39831

Orbit data source: Space-Track

COSMOS 1823 DEB, 39831 is space debris in LEO originally from a launch on Fri, 20 Feb 1987 UTC launched from the Plesetsk Missile And Space Complex (PKMTR). Debris objects in space refer to the collection of defunct objects orbiting the Earth. Examples of debris include non-operational satellites, rocket bodies, and fragments generated from explosions, collisions, or faulty payload assembly.

Loading next visibility...
Identifier
39831, 1987-020FF
Orbit
LEO
Country
Flag of CISCIS
Related business
Manufacturer
Unknown
Mission
Spacecraft
Bus & Motor
Unknown
Mass
Unknown
Launch date (UTC)
1987-02-20 (39 years ago)
Launch vehicle
Unknown
Launch site
Plesetsk Missile And Space Complex (PKMTR)
Object type
Payload
Rocket body
Debris
Shape & HBR
Unknown shape, 0.1 m
Radar Cross Section
Small (<0.1 m²)

Expand to show TLE details & history
Last TLE update: 1 week ago

TLE from 1 week ago
0 COSMOS 1823 DEB
1 39831U 87020FF  26163.84645690  .00000144  00000-0  11601-2 0  9991
2 39831  73.6011  13.0694 0026639 213.5127 168.3833 12.43029465297000
Epoch: 2026-06-12T20:18Z
TLE epoch observation values (Epoch: 2026-06-12T20:18:53.876Z)
Latitude
21.03437°
Longitude
173.64123°
Altitude
1,516.391 km
Speed
7.1 km/s
True Right ascension
01h 18m 08s
True Declination
20° 55' 50"
Sunlit
Object was in daylight at epoch
Visualization orbit readout
Latitude
Unknown
Longitude
Unknown
Altitude
Unknown
Speed
Unknown
Apparent Right ascension
Unknown
Apparent Declination
Unknown
Sunlit
N/A
Visualization observer readout
Local Sidereal Time
09:41:25
Azimuth
Unknown
Elevation
Unknown
Doppler factor
Unknown
Orbital elements
Apogee altitude
1,512.628 km
Perigee altitude
1,470.699 km
Semi-major axis
7,869.801 km
Eccentricity
0.00266
Inclination
73.6011°
RAAN
13.0694°
Arg. of periapsis
213.5127°
True anomaly
168.44457°
Mean anomaly
168.3833°
Eccentric anomaly
168.41395°
Mean motion
3.10883 °/min
Orbital period
115.8 mins
BSTAR
0.0011601
Loading maneuver chart data...
Computing Atmospheric mass density...

Documentation

Showing up to 5 results
|